TIME,DELAY(SENSOR),PRES,OXYGEN,RAWTEMP,T(OPTODE),TCPHASE,FLUOR,BETA(BETA700),BETA(BETA412),BETA(BETA440),CDOM,C(CSC),ED(ED412.20),ED(ED444.00),ED(ED489.60),ED(ED554.30),LU(LU412.10),LU(LU443.90),LU(LU489.70),LU(LU554.70),COMP,TILTX,TILTY,CHECK
1344742260,5807,893.3400268554688000,35.0786895751953100,556.6461181640625000,4.5897917747497560,56.2332496643066400,55,100,100,77,83,15574,0,0,0,0,2147122724,2147772800,2147574217,2147568658,338,3,13,56233
1344745856,5810,983.0300292968750000,38.6985397338867200,567.1041870117188000,4.2655138969421390,55.7810401916503900,55,100,101,78,83,15571,0,0,0,0,2147126162,2147776502,2147576758,2147569600,174,3,13,49471
1344749456,5808,995.7999877929688000,38.1614608764648440,569.3729858398438000,4.1950440406799320,55.8838882446289060,55,97,99,78,83,15574,0,0,0,0,2147122477,2147779712,2147579556,2147570697,2630,3,13,30703
1344753056,5809,995.2500000000000000,38.8200988769531250,570.3922729492188000,4.1633682250976560,55.7966918945312500,54,106,101,78,83,15573,0,0,0,0,2147124233,2147776475,2147576018,2147571913,651,3,13,26597
1344756656,5811,998.4299926757812000,39.7099800109863300,571.1414794921875000,4.1400809288024900,55.6741714477539060,55,98,101,78,83,15570,0,0,0,0,2147121846,2147774089,2147574390,2147568841,3512,3,13,28980
1344760256,5812,994.8900146484375000,40.0249786376953100,571.5753784179688000,4.1265950202941895,55.6324005126953100,55,101,101,78,83,15567,0,0,0,0,2147122660,2147777481,2147571446,2147570102,642,3,13,23105
1344763856,5812,1004.0700073242188000,40.0379219055175800,571.4027709960938000,4.1319618225097660,55.6236381530761700,55,97,101,77,82,15569,0,0,0,0,2147123675,2147775469,2147575387,2147572096,3371,3,13,57341
1344767456,5808,1008.3599853515625000,39.0130004882812500,571.2866210937500000,4.1355719566345215,55.7792091369628900,56,100,101,79,83,15568,0,0,0,0,2147120301,2147773668,2147577005,2147572982,3536,3,13,3192
1344771056,5810,1012.1799926757812000,38.9912300109863300,570.7988281250000000,4.1507339477539060,55.7786788940429700,55,100,101,78,83,15566,0,0,0,0,2147127442,2147776585,2147575286,2147574390,30,3,13,45122
1344774656,5808,1014.7899780273438000,38.4202308654785160,570.3820800781250000,4.1636848449707030,55.8579902648925800,56,99,102,78,84,15566,0,0,0,0,2147123492,2147770715,2147571547,2147573558,3585,3,13,60902
1344778256,5809,1012.6599731445312000,39.5404396057128900,570.9467773437500000,4.1461329460144040,55.6965599060058600,56,97,100,77,84,15568,0,0,0,0,2147125019,2147774253,2147574985,2147570852,151,3,13,37869
1344781856,5807,1011.7399902343750000,38.2980690002441400,570.4146728515625000,4.1626720428466800,55.8779106140136700,55,100,100,78,84,15565,0,0,0,0,2147125577,2147777325,2147574281,2147571529,3330,3,13,5736
1344785456,5810,1013.0599975585938000,38.4669609069824200,571.1981201171875000,4.1383228302001950,55.8606796264648440,55,125,101,79,82,15566,0,0,0,0,2147124827,2147777938,2147572800,2147569947,43,3,13,13748
1344789056,5809,1016.6199951171875000,39.8323898315429700,570.6036987304688000,4.1567988395690920,55.6490592956543000,55,99,100,78,84,15566,0,0,0,0,2147123821,2147772041,2147573476,2147567213,3482,3,13,64852
1344792656,5810,1019.4699707031250000,39.6697311401367200,570.3217163085938000,4.1655650138854980,55.6708106994628900,55,99,100,77,84,15567,0,0,0,0,2147123712,2147772233,2147575122,2147571044,178,3,13,32538
1344796256,5808,1016.0000000000000000,39.5248985290527340,570.6331787109375000,4.1558818817138670,55.6965599060058600,55,99,101,78,83,15564,0,0,0,0,2147121307,2147773659,2147573558,2147569801,322,3,13,24827
1344799856,5812,1018.6300048828125000,39.7811317443847660,570.3937988281250000,4.1633219718933105,55.6517601013183600,55,98,101,77,83,15563,0,0,0,0,2147124224,2147773824,2147572690,2147570532,326,3,13,17519
1344803456,5809,1016.4600219726562000,39.6562995910644500,570.7387084960938000,4.1526031494140625,55.6763496398925800,56,99,101,78,84,15564,0,0,0,0,2147125293,2147780653,2147575332,2147572461,146,3,13,53091
1344807056,5811,1018.7999877929688000,38.9374618530273440,571.8225097656250000,4.1189122200012210,55.7950706481933600,56,98,102,78,85,15565,0,0,0,0,2147121920,2147772434,2147570651,2147569444,55,3,13,36474
1344810656,5810,1016.8099975585938000,38.7952613830566400,571.0217285156250000,4.1438078880310060,55.8047294616699200,56,101,102,78,83,15563,0,0,0,0,2147122925,2147774253,2147570102,2147571830,3096,3,13,15893
1344814256,5811,1016.1699829101562000,38.8074989318847660,571.5178222656250000,4.1283860206604000,55.8074913024902340,55,98,101,78,84,15563,0,0,0,0,2147123474,2147774107,2147573147,2147571520,465,3,13,51308
1344817856,5809,1015.2899780273438000,38.9548683166503900,571.4373779296875000,4.1308860778808590,55.7893486022949200,56,99,102,78,83,15564,0,0,0,0,2147122688,2147773403,2147572105,2147572288,673,3,13,62623
1344821456,5808,1016.1400146484375000,38.4552001953125000,571.2053222656250000,4.1381020545959470,55.8583106994628900,56,100,101,78,83,15563,0,0,0,0,2147126052,2147775241,2147580187,2147570084,392,3,13,16867
1344825056,5810,1020.5399780273438000,38.7998199462890600,571.2089233398438000,4.1379871368408200,55.8100013732910160,55,100,100,78,83,15563,0,0,0,0,2147125120,2147771099,2147575990,2147567168,357,3,13,26936
1344828656,5809,1026.0200195312500000,38.1213302612304700,570.2307128906250000,4.1683921813964840,55.9040107727050800,55,97,100,79,84,15563,0,0,0,0,2147121316,2147777728,2147576036,2147569097,156,3,13,23734
1344832256,5810,1029.3599853515625000,37.8559188842773440,570.4163208007812000,4.1626219749450680,55.9391593933105500,54,99,101,79,83,15561,0,0,0,0,2147122998,2147776411,2147576996,2147572763,36,3,13,53264
1344835856,5807,1024.6199951171875000,37.6401786804199200,571.1229858398438000,4.1406569480896000,55.9817008972168000,55,99,101,79,82,15559,0,0,0,0,2147122404,2147779547,2147578989,2147569993,111,3,13,18473
1344839456,5810,1018.9099731445312000,39.1895904541015600,571.6829833984375000,4.1232471466064450,55.7565193176269500,55,101,102,79,84,15560,0,0,0,0,2147122121,2147777316,2147575670,2147571282,3338,3,13,46466
1344843056,5813,1014.7899780273438000,38.9564781188964840,572.4406127929688000,4.0996928215026855,55.7963294982910160,55,99,101,78,83,15559,0,0,0,0,2147121965,2147780196,2147572909,2147569325,3518,3,13,13613
1344846656,5808,1013.6799926757812000,39.2085800170898440,572.7230224609375000,4.0909118652343750,55.7598495483398440,55,99,100,79,82,15556,0,0,0,0,2147120941,2147775698,2147573659,2147568969,381,3,13,18164
1344850256,5807,1014.7899780273438000,39.6853408813476560,572.3959960937500000,4.1010799407958980,55.6903610229492200,54,97,100,78,83,15557,0,0,0,0,2147122825,2147781074,2147578806,2147569170,340,3,13,7172
1344853856,5809,1013.7299804687500000,39.8908691406250000,572.7495117187500000,4.0900878906250000,55.6628990173339840,54,99,101,79,82,15558,0,0,0,0,2147124233,2147776557,2147573604,2147567433,661,3,13,22128
1344857456,5808,1021.8200073242188000,39.9357986450195300,572.4630737304688000,4.0989909172058105,55.6486701965332000,54,103,101,77,83,15557,0,0,0,0,2147126518,2147773522,2147574692,2147571044,3585,3,13,50400
1344861056,5809,1020.0999755859375000,39.2193603515625000,572.0867919921875000,4.1106948852539060,55.7504386901855500,54,98,101,79,82,15555,0,0,0,0,2147124626,2147775917,2147574573,2147569371,3246,3,13,33214
1344864656,5809,1025.8900146484375000,39.3658599853515600,570.9157714843750000,4.1470990180969240,55.7178001403808600,55,98,101,78,83,15554,0,0,0,0,2147125458,2147775478,2147579885,2147570267,172,3,13,59390
1344868256,5811,1027.2600097656250000,39.3522911071777340,571.5380859375000000,4.1277542114257810,55.7273902893066400,56,99,101,77,82,15555,0,0,0,0,2147120320,2147777828,2147572388,2147569572,3441,3,13,14645
1344871856,5811,1020.9500122070312000,39.4966392517089840,571.5230712890625000,4.1282200813293460,55.7042503356933600,56,100,101,78,84,15554,0,0,0,0,2147124516,2147776502,2147574637,2147572699,3231,3,13,8230
1344875456,5809,1022.2199707031250000,39.2069206237793000,571.9777832031250000,4.1140837669372560,55.7531700134277340,55,96,100,78,83,15553,0,0,0,0,2147124580,2147771181,2147574299,2147571273,3269,3,13,29807
1344879056,5810,1027.4000244140625000,39.2936401367187500,571.4755249023438000,4.1297001838684080,55.7378807067871100,55,99,101,78,82,15553,0,0,0,0,2147122560,2147769261,2147573988,2147569234,44,3,13,43772
1344882656,5807,1028.3800048828125000,39.3555717468261700,571.5505981445312000,4.1273651123046875,55.7265090942382800,56,118,102,78,82,15552,0,0,0,0,2147124553,2147777426,2147576512,2147568530,3215,3,13,36767
1344885956,5809,1024.4499511718750000,38.8866386413574200,571.6829833984375000,4.1232471466064450,55.7979393005371100,55,106,102,78,83,15554,0,0,0,0,2147121088,2147776219,2147574902,2147573549,142,3,13,59262
